Year,Month,Day,Hour,Minute,Value (Times are PST for temperature in C)
2016,07,29,00,00,18.20
2016,07,29,00,01,18.20
2016,07,29,00,02,18.20
2016,07,29,00,03,18.20
2016,07,29,00,04,18.20
2016,07,29,00,05,18.20
2016,07,29,00,06,18.20
2016,07,29,00,07,18.20
2016,07,29,00,08,18.20
2016,07,29,00,09,18.20
2016,07,29,00,10,18.20
2016,07,29,00,11,18.20
2016,07,29,00,12,18.20
2016,07,29,00,13,18.20
2016,07,29,00,14,18.20
2016,07,29,00,15,18.20
2016,07,29,00,16,18.20
2016,07,29,00,17,18.20
2016,07,29,00,18,18.20
2016,07,29,00,19,18.20
2016,07,29,00,20,18.20
2016,07,29,00,21,18.10
2016,07,29,00,22,18.10
2016,07,29,00,23,18.10
2016,07,29,00,24,18.10
2016,07,29,00,25,18.10
2016,07,29,00,26,18.10
2016,07,29,00,27,18.10
2016,07,29,00,28,18.10
2016,07,29,00,29,18.10
2016,07,29,00,30,18.10
2016,07,29,00,31,18.00
2016,07,29,00,32,18.00
2016,07,29,00,33,18.00
2016,07,29,00,34,18.00
2016,07,29,00,35,18.00
2016,07,29,00,36,18.00
2016,07,29,00,37,18.00
2016,07,29,00,38,18.00
2016,07,29,00,39,18.00
2016,07,29,00,40,18.00
2016,07,29,00,41,18.00
2016,07,29,00,42,18.00
2016,07,29,00,43,18.00
2016,07,29,00,44,18.00
2016,07,29,00,45,18.00
2016,07,29,00,46,17.90
2016,07,29,00,47,17.90
2016,07,29,00,48,17.90
2016,07,29,00,49,17.90
2016,07,29,00,50,17.90
2016,07,29,00,51,17.90
2016,07,29,00,52,17.90
2016,07,29,00,53,17.90
2016,07,29,00,54,17.90
2016,07,29,00,55,17.90
2016,07,29,00,56,17.90
2016,07,29,00,57,17.90
2016,07,29,00,58,17.90
2016,07,29,00,59,17.90
2016,07,29,01,00,17.90
2016,07,29,01,01,17.90
2016,07,29,01,02,17.90
2016,07,29,01,03,17.90
2016,07,29,01,04,17.80
2016,07,29,01,05,17.90
2016,07,29,01,06,17.90
2016,07,29,01,07,17.90
2016,07,29,01,08,18.00
2016,07,29,01,09,18.10
2016,07,29,01,10,18.10
2016,07,29,01,11,18.20
2016,07,29,01,12,18.20
2016,07,29,01,13,18.20
2016,07,29,01,14,18.20
2016,07,29,01,15,18.20
2016,07,29,01,16,18.20
2016,07,29,01,17,18.20
2016,07,29,01,18,18.20
2016,07,29,01,19,18.20
2016,07,29,01,20,18.10
2016,07,29,01,21,18.10
2016,07,29,01,22,18.10
2016,07,29,01,23,18.00
2016,07,29,01,24,18.00
2016,07,29,01,25,18.00
2016,07,29,01,26,17.90
2016,07,29,01,27,17.90
2016,07,29,01,28,17.90
2016,07,29,01,29,17.90
2016,07,29,01,30,17.90
2016,07,29,01,31,17.80
2016,07,29,01,32,17.80
2016,07,29,01,33,17.80
2016,07,29,01,34,17.70
2016,07,29,01,35,17.60
2016,07,29,01,36,17.60
2016,07,29,01,37,17.50
2016,07,29,01,38,17.50
2016,07,29,01,39,17.40
2016,07,29,01,40,17.40
2016,07,29,01,41,17.30
2016,07,29,01,42,17.30
2016,07,29,01,43,17.30
2016,07,29,01,44,17.30
2016,07,29,01,45,17.30
2016,07,29,01,46,17.30
2016,07,29,01,47,17.20
2016,07,29,01,48,17.20
2016,07,29,01,49,17.20
2016,07,29,01,50,17.20
2016,07,29,01,51,17.10
2016,07,29,01,52,17.10
2016,07,29,01,53,17.10
2016,07,29,01,54,17.10
2016,07,29,01,55,17.00
2016,07,29,01,56,17.00
2016,07,29,01,57,17.00
2016,07,29,01,58,16.90
2016,07,29,01,59,16.90
2016,07,29,02,00,16.90
2016,07,29,02,01,16.90
2016,07,29,02,02,16.90
2016,07,29,02,03,16.80
2016,07,29,02,04,16.80
2016,07,29,02,05,16.80
2016,07,29,02,06,16.80
2016,07,29,02,07,16.80
2016,07,29,02,08,16.80
2016,07,29,02,09,16.80
2016,07,29,02,10,16.70
2016,07,29,02,11,16.70
2016,07,29,02,12,16.70
2016,07,29,02,13,16.70
2016,07,29,02,14,16.70
2016,07,29,02,15,16.70
2016,07,29,02,16,16.70
2016,07,29,02,17,16.70
2016,07,29,02,18,16.70
2016,07,29,02,19,16.70
2016,07,29,02,20,16.70
2016,07,29,02,21,16.70
2016,07,29,02,22,16.70
2016,07,29,02,23,16.70
2016,07,29,02,24,16.60
2016,07,29,02,25,16.60
2016,07,29,02,26,16.60
2016,07,29,02,27,16.60
2016,07,29,02,28,16.60
2016,07,29,02,29,16.60
2016,07,29,02,30,16.50
2016,07,29,02,31,16.50
2016,07,29,02,32,16.50
2016,07,29,02,33,16.40
2016,07,29,02,34,16.40
2016,07,29,02,35,16.40
2016,07,29,02,36,16.40
2016,07,29,02,37,16.40
2016,07,29,02,38,16.40
2016,07,29,02,39,16.40
2016,07,29,02,40,16.40
2016,07,29,02,41,16.30
2016,07,29,02,42,16.30
2016,07,29,02,43,16.30
2016,07,29,02,44,16.30
2016,07,29,02,45,16.30
2016,07,29,02,46,16.30
2016,07,29,02,47,16.30
2016,07,29,02,48,16.30
2016,07,29,02,49,16.30
2016,07,29,02,50,16.30
2016,07,29,02,51,16.20
2016,07,29,02,52,16.20
2016,07,29,02,53,16.20
2016,07,29,02,54,16.20
2016,07,29,02,55,16.20
2016,07,29,02,56,16.20
2016,07,29,02,57,16.20
2016,07,29,02,58,16.10
2016,07,29,02,59,16.10
2016,07,29,03,00,16.10
2016,07,29,03,01,16.10
2016,07,29,03,02,16.10
2016,07,29,03,03,16.10
2016,07,29,03,04,16.10
2016,07,29,03,05,16.10
2016,07,29,03,06,16.10
2016,07,29,03,07,16.00
2016,07,29,03,08,16.00
2016,07,29,03,09,16.00
2016,07,29,03,10,16.00
2016,07,29,03,11,16.00
2016,07,29,03,12,16.00
2016,07,29,03,13,16.00
2016,07,29,03,14,16.00
2016,07,29,03,15,16.00
2016,07,29,03,16,16.00
2016,07,29,03,17,16.00
2016,07,29,03,18,16.00
2016,07,29,03,19,16.00
2016,07,29,03,20,16.00
2016,07,29,03,21,16.00
2016,07,29,03,22,16.00
2016,07,29,03,23,15.90
2016,07,29,03,24,15.90
2016,07,29,03,25,15.90
2016,07,29,03,26,15.90
2016,07,29,03,27,15.90
2016,07,29,03,28,15.90
2016,07,29,03,29,15.90
2016,07,29,03,30,15.90
2016,07,29,03,31,15.90
2016,07,29,03,32,15.80
2016,07,29,03,33,15.80
2016,07,29,03,34,15.80
2016,07,29,03,35,15.80
2016,07,29,03,36,15.80
2016,07,29,03,37,15.80
2016,07,29,03,38,15.80
2016,07,29,03,39,15.80
2016,07,29,03,40,15.80
2016,07,29,03,41,15.80
2016,07,29,03,42,15.80
2016,07,29,03,43,15.80
2016,07,29,03,44,15.80
2016,07,29,03,45,15.80
2016,07,29,03,46,15.80
2016,07,29,03,47,15.80
2016,07,29,03,48,15.80
2016,07,29,03,49,15.80
2016,07,29,03,50,15.80
2016,07,29,03,51,15.80
2016,07,29,03,52,15.80
2016,07,29,03,53,15.80
2016,07,29,03,54,15.80
2016,07,29,03,55,15.80
2016,07,29,03,56,15.80
2016,07,29,03,57,15.80
2016,07,29,03,58,15.80
2016,07,29,03,59,15.80
2016,07,29,04,00,15.80
2016,07,29,04,01,15.80
2016,07,29,04,02,15.80
2016,07,29,04,03,15.80
2016,07,29,04,04,15.80
2016,07,29,04,05,15.80
2016,07,29,04,06,15.80
2016,07,29,04,07,15.80
2016,07,29,04,08,15.80
2016,07,29,04,09,15.80
2016,07,29,04,10,15.80
2016,07,29,04,11,15.80
2016,07,29,04,12,15.80
2016,07,29,04,13,15.80
2016,07,29,04,14,15.80
2016,07,29,04,15,15.80
2016,07,29,04,16,15.80
2016,07,29,04,17,15.80
2016,07,29,04,18,15.80
2016,07,29,04,19,15.80
2016,07,29,04,20,15.80
2016,07,29,04,21,15.80
2016,07,29,04,22,15.80
2016,07,29,04,23,15.80
2016,07,29,04,24,15.80
2016,07,29,04,25,15.80
2016,07,29,04,26,15.80
2016,07,29,04,27,15.80
2016,07,29,04,28,15.80
2016,07,29,04,29,15.80
2016,07,29,04,30,15.80
2016,07,29,04,31,15.80
2016,07,29,04,32,15.80
2016,07,29,04,33,15.90
2016,07,29,04,34,15.90
2016,07,29,04,35,15.90
2016,07,29,04,36,15.90
2016,07,29,04,37,15.90
2016,07,29,04,38,15.90
2016,07,29,04,39,15.90
2016,07,29,04,40,16.00
2016,07,29,04,41,16.00
2016,07,29,04,42,16.00
2016,07,29,04,43,16.00
2016,07,29,04,44,16.00
2016,07,29,04,45,16.00
2016,07,29,04,46,16.00
2016,07,29,04,47,16.10
2016,07,29,04,48,16.10
2016,07,29,04,49,16.10
2016,07,29,04,50,16.10
2016,07,29,04,51,16.10
2016,07,29,04,52,16.10
2016,07,29,04,53,16.10
2016,07,29,04,54,16.10
2016,07,29,04,55,16.10
2016,07,29,04,56,16.10
2016,07,29,04,57,16.10
2016,07,29,04,58,16.10
2016,07,29,04,59,16.10
2016,07,29,05,00,16.00
2016,07,29,05,01,16.00
2016,07,29,05,02,16.00
2016,07,29,05,03,16.00
2016,07,29,05,04,15.90
2016,07,29,05,05,15.90
2016,07,29,05,06,15.90
2016,07,29,05,07,15.90
2016,07,29,05,08,15.90
2016,07,29,05,09,15.90
2016,07,29,05,10,15.90
2016,07,29,05,11,15.90
2016,07,29,05,12,15.90
2016,07,29,05,13,15.90
2016,07,29,05,14,15.90
2016,07,29,05,15,15.80
2016,07,29,05,16,15.80
2016,07,29,05,17,15.80
2016,07,29,05,18,15.80
2016,07,29,05,19,15.80
2016,07,29,05,20,15.80
2016,07,29,05,21,15.80
2016,07,29,05,22,15.80
2016,07,29,05,23,15.80
2016,07,29,05,24,15.80
2016,07,29,05,25,15.80
2016,07,29,05,26,15.80
2016,07,29,05,27,15.80
2016,07,29,05,28,15.80
2016,07,29,05,29,15.80
2016,07,29,05,30,15.80
2016,07,29,05,31,15.80
2016,07,29,05,32,15.80
2016,07,29,05,33,15.80
2016,07,29,05,34,15.80
2016,07,29,05,35,15.80
2016,07,29,05,36,15.80
2016,07,29,05,37,15.80
2016,07,29,05,38,15.80
2016,07,29,05,39,15.80
2016,07,29,05,40,15.80
2016,07,29,05,41,15.80
2016,07,29,05,42,15.80
2016,07,29,05,43,15.80
2016,07,29,05,44,15.80
2016,07,29,05,45,15.70
2016,07,29,05,46,15.80
2016,07,29,05,47,15.80
2016,07,29,05,48,15.80
2016,07,29,05,49,15.70
2016,07,29,05,50,15.70
2016,07,29,05,51,15.70
2016,07,29,05,52,15.60
2016,07,29,05,53,15.50
2016,07,29,05,54,15.50
2016,07,29,05,55,15.40
2016,07,29,05,56,15.40
2016,07,29,05,57,15.30
2016,07,29,05,58,15.20
2016,07,29,05,59,15.20
2016,07,29,06,00,15.10
2016,07,29,06,01,15.10
2016,07,29,06,02,15.00
2016,07,29,06,03,15.00
2016,07,29,06,04,14.90
2016,07,29,06,05,14.90
2016,07,29,06,06,14.80
2016,07,29,06,07,14.80
2016,07,29,06,08,14.80
2016,07,29,06,09,14.80
2016,07,29,06,10,14.70
2016,07,29,06,11,14.70
2016,07,29,06,12,14.70
2016,07,29,06,13,14.70
2016,07,29,06,14,14.70
2016,07,29,06,15,14.70
2016,07,29,06,16,14.70
2016,07,29,06,17,14.70
2016,07,29,06,18,14.80
2016,07,29,06,19,14.80
2016,07,29,06,20,14.80
2016,07,29,06,21,14.80
2016,07,29,06,22,14.80
2016,07,29,06,23,14.80
2016,07,29,06,24,14.80
2016,07,29,06,25,14.80
2016,07,29,06,26,14.80
2016,07,29,06,27,14.80
2016,07,29,06,28,14.80
2016,07,29,06,29,14.80
2016,07,29,06,30,14.80
2016,07,29,06,31,14.80
2016,07,29,06,32,14.80
2016,07,29,06,33,14.90
2016,07,29,06,34,14.90
2016,07,29,06,35,14.90
2016,07,29,06,36,14.90
2016,07,29,06,37,14.90
2016,07,29,06,38,14.90
2016,07,29,06,39,14.90
2016,07,29,06,40,14.90
2016,07,29,06,41,14.90
2016,07,29,06,42,15.00
2016,07,29,06,43,15.00
2016,07,29,06,44,15.00
2016,07,29,06,45,15.00
2016,07,29,06,46,15.00
2016,07,29,06,47,15.10
2016,07,29,06,48,15.10
2016,07,29,06,49,15.10
2016,07,29,06,50,15.10
2016,07,29,06,51,15.20
2016,07,29,06,52,15.20
2016,07,29,06,53,15.20
2016,07,29,06,54,15.20
2016,07,29,06,55,15.20
2016,07,29,06,56,15.30
2016,07,29,06,57,15.30
2016,07,29,06,58,15.30
2016,07,29,06,59,15.30
2016,07,29,07,00,15.30
2016,07,29,07,01,15.30
2016,07,29,07,02,15.40
2016,07,29,07,03,15.40
2016,07,29,07,04,15.40
2016,07,29,07,05,15.50
2016,07,29,07,06,15.50
2016,07,29,07,07,15.50
2016,07,29,07,08,15.60
2016,07,29,07,09,15.60
2016,07,29,07,10,15.60
2016,07,29,07,11,15.70
2016,07,29,07,12,15.70
2016,07,29,07,13,15.70
2016,07,29,07,14,15.80
2016,07,29,07,15,15.80
2016,07,29,07,16,15.90
2016,07,29,07,17,15.90
2016,07,29,07,18,16.00
2016,07,29,07,19,16.00
2016,07,29,07,20,16.10
2016,07,29,07,21,16.10
2016,07,29,07,22,16.20
2016,07,29,07,23,16.20
2016,07,29,07,24,16.30
2016,07,29,07,25,16.30
2016,07,29,07,26,16.40
2016,07,29,07,27,16.50
2016,07,29,07,28,16.60
2016,07,29,07,29,16.70
2016,07,29,07,30,16.70
2016,07,29,07,31,16.80
2016,07,29,07,32,16.90
2016,07,29,07,33,16.90
2016,07,29,07,34,17.00
2016,07,29,07,35,17.10
2016,07,29,07,36,17.20
2016,07,29,07,37,17.30
2016,07,29,07,38,17.30
2016,07,29,07,39,17.40
2016,07,29,07,40,17.50
2016,07,29,07,41,17.60
2016,07,29,07,42,17.70
2016,07,29,07,43,17.80
2016,07,29,07,44,17.80
2016,07,29,07,45,17.90
2016,07,29,07,46,17.90
2016,07,29,07,47,17.90
2016,07,29,07,48,18.00
2016,07,29,07,49,18.00
2016,07,29,07,50,18.10
2016,07,29,07,51,18.20
2016,07,29,07,52,18.20
2016,07,29,07,53,18.30
2016,07,29,07,54,18.30
2016,07,29,07,55,18.30
2016,07,29,07,56,18.30
2016,07,29,07,57,18.30
2016,07,29,07,58,18.20
2016,07,29,07,59,18.20
2016,07,29,08,00,18.20
2016,07,29,08,01,18.10
2016,07,29,08,02,18.10
2016,07,29,08,03,18.00
2016,07,29,08,04,18.00
2016,07,29,08,05,17.90
2016,07,29,08,06,17.80
2016,07,29,08,07,17.70
2016,07,29,08,08,17.60
2016,07,29,08,09,17.50
2016,07,29,08,10,17.40
2016,07,29,08,11,17.40
2016,07,29,08,12,17.30
2016,07,29,08,13,17.30
2016,07,29,08,14,17.20
2016,07,29,08,15,17.20
2016,07,29,08,16,17.20
2016,07,29,08,17,17.20
2016,07,29,08,18,17.20
2016,07,29,08,19,17.20
2016,07,29,08,20,17.20
2016,07,29,08,21,17.30
2016,07,29,08,22,17.30
2016,07,29,08,23,17.30
2016,07,29,08,24,17.40
2016,07,29,08,25,17.40
2016,07,29,08,26,17.50
2016,07,29,08,27,17.60
2016,07,29,08,28,17.60
2016,07,29,08,29,17.70
2016,07,29,08,30,17.80
2016,07,29,08,31,17.80
2016,07,29,08,32,17.90
2016,07,29,08,33,18.00
2016,07,29,08,34,18.00
2016,07,29,08,35,18.00
2016,07,29,08,36,18.10
2016,07,29,08,37,18.10
2016,07,29,08,38,18.10
2016,07,29,08,39,18.10
2016,07,29,08,40,18.10
2016,07,29,08,41,18.00
2016,07,29,08,42,18.00
2016,07,29,08,43,18.00
2016,07,29,08,44,17.90
2016,07,29,08,45,17.90
2016,07,29,08,46,17.80
2016,07,29,08,47,17.70
2016,07,29,08,48,17.70
2016,07,29,08,49,17.50
2016,07,29,08,50,17.50
2016,07,29,08,51,17.40
2016,07,29,08,52,17.40
2016,07,29,08,53,17.30
2016,07,29,08,54,17.20
2016,07,29,08,55,17.10
2016,07,29,08,56,17.00
2016,07,29,08,57,17.00
2016,07,29,08,58,16.90
2016,07,29,08,59,16.90
2016,07,29,09,00,16.90
2016,07,29,09,01,16.90
2016,07,29,09,02,16.90
2016,07,29,09,03,17.00
2016,07,29,09,04,17.00
2016,07,29,09,05,17.10
2016,07,29,09,06,17.20
2016,07,29,09,07,17.20
2016,07,29,09,08,17.20
2016,07,29,09,09,17.20
2016,07,29,09,10,17.20
2016,07,29,09,11,17.20
2016,07,29,09,12,17.30
2016,07,29,09,13,17.30
2016,07,29,09,14,17.40
2016,07,29,09,15,17.40
2016,07,29,09,16,17.50
2016,07,29,09,17,17.50
2016,07,29,09,18,17.60
2016,07,29,09,19,17.60
2016,07,29,09,20,17.60
2016,07,29,09,21,17.70
2016,07,29,09,22,17.70
2016,07,29,09,23,17.70
2016,07,29,09,24,17.70
2016,07,29,09,25,17.80
2016,07,29,09,26,17.80
2016,07,29,09,27,17.80
2016,07,29,09,28,17.80
2016,07,29,09,29,17.90
2016,07,29,09,30,17.90
2016,07,29,09,31,17.90
2016,07,29,09,32,18.00
2016,07,29,09,33,18.00
2016,07,29,09,34,18.10
2016,07,29,09,35,18.10
2016,07,29,09,36,18.10
2016,07,29,09,37,18.20
2016,07,29,09,38,18.20
2016,07,29,09,39,18.20
2016,07,29,09,40,18.20
2016,07,29,09,41,18.20
2016,07,29,09,42,18.20
2016,07,29,09,43,18.20
2016,07,29,09,44,18.20
2016,07,29,09,45,18.20
2016,07,29,09,46,18.20
2016,07,29,09,47,18.20
2016,07,29,09,48,18.20
2016,07,29,09,49,18.20
2016,07,29,09,50,18.20
2016,07,29,09,51,18.20
2016,07,29,09,52,18.20
2016,07,29,09,53,18.30
2016,07,29,09,54,18.30
2016,07,29,09,55,18.30
2016,07,29,09,56,18.30
2016,07,29,09,57,18.30
2016,07,29,09,58,18.30
2016,07,29,09,59,18.30
2016,07,29,10,00,18.30
2016,07,29,10,01,18.40
2016,07,29,10,02,18.40
2016,07,29,10,03,18.40
2016,07,29,10,04,18.40
2016,07,29,10,05,18.40
2016,07,29,10,06,18.40
2016,07,29,10,07,18.50
2016,07,29,10,08,18.50
2016,07,29,10,09,18.50
2016,07,29,10,10,18.50
2016,07,29,10,11,18.50
2016,07,29,10,12,18.50
2016,07,29,10,13,18.40
2016,07,29,10,14,18.40
2016,07,29,10,15,18.50
2016,07,29,10,16,18.40
2016,07,29,10,17,18.40
2016,07,29,10,18,18.40
2016,07,29,10,19,18.40
2016,07,29,10,20,18.40
2016,07,29,10,21,18.40
2016,07,29,10,22,18.40
2016,07,29,10,23,18.40
2016,07,29,10,24,18.40
2016,07,29,10,25,18.40
2016,07,29,10,26,18.40
2016,07,29,10,27,18.30
2016,07,29,10,28,18.30
2016,07,29,10,29,18.30
2016,07,29,10,30,18.30
2016,07,29,10,31,18.30
2016,07,29,10,32,18.30
2016,07,29,10,33,18.20
2016,07,29,10,34,18.20
2016,07,29,10,35,18.20
2016,07,29,10,36,18.20
2016,07,29,10,37,18.10
2016,07,29,10,38,18.10
2016,07,29,10,39,18.10
2016,07,29,10,40,18.10
2016,07,29,10,41,18.10
2016,07,29,10,42,18.10
2016,07,29,10,43,18.10
2016,07,29,10,44,18.00
2016,07,29,10,45,18.00
2016,07,29,10,46,18.10
2016,07,29,10,47,18.10
2016,07,29,10,48,18.00
2016,07,29,10,49,18.00
2016,07,29,10,50,18.00
2016,07,29,10,51,18.00
2016,07,29,10,52,18.00
2016,07,29,10,53,18.00
2016,07,29,10,54,17.90
2016,07,29,10,55,17.90
2016,07,29,10,56,17.90
2016,07,29,10,57,17.80
2016,07,29,10,58,17.80
2016,07,29,10,59,17.80
2016,07,29,11,00,17.70
2016,07,29,11,01,17.70
2016,07,29,11,02,17.70
2016,07,29,11,03,17.70
2016,07,29,11,04,17.70
2016,07,29,11,05,17.70
2016,07,29,11,06,17.70
2016,07,29,11,07,17.70
2016,07,29,11,08,17.70
2016,07,29,11,09,17.70
2016,07,29,11,10,17.70
2016,07,29,11,11,17.70
2016,07,29,11,12,17.70
2016,07,29,11,13,17.60
2016,07,29,11,14,17.60
2016,07,29,11,15,17.60
2016,07,29,11,16,17.60
2016,07,29,11,17,17.60
2016,07,29,11,18,17.60
2016,07,29,11,19,17.60
2016,07,29,11,20,17.50
2016,07,29,11,21,17.40
2016,07,29,11,22,17.40
2016,07,29,11,23,17.40
2016,07,29,11,24,17.40
2016,07,29,11,25,17.30
2016,07,29,11,26,17.30
2016,07,29,11,27,17.30
2016,07,29,11,28,17.20
2016,07,29,11,29,17.30
2016,07,29,11,30,17.30
2016,07,29,11,31,17.30
2016,07,29,11,32,17.30
2016,07,29,11,33,17.30
2016,07,29,11,34,17.20
2016,07,29,11,35,17.20
2016,07,29,11,36,17.20
2016,07,29,11,37,17.20
2016,07,29,11,38,17.20
2016,07,29,11,39,17.20
2016,07,29,11,40,17.20
2016,07,29,11,41,17.20
2016,07,29,11,42,17.20
2016,07,29,11,43,17.20
2016,07,29,11,44,17.30
2016,07,29,11,45,17.30
2016,07,29,11,46,17.30
2016,07,29,11,47,17.40
2016,07,29,11,48,17.50
2016,07,29,11,49,17.50
2016,07,29,11,50,17.60
2016,07,29,11,51,17.70
2016,07,29,11,52,17.70
2016,07,29,11,53,17.80
2016,07,29,11,54,17.90
2016,07,29,11,55,17.90
2016,07,29,11,56,18.00
2016,07,29,11,57,18.00
2016,07,29,11,58,18.10
2016,07,29,11,59,18.10
2016,07,29,12,00,18.10
2016,07,29,12,01,18.10
2016,07,29,12,02,18.10
2016,07,29,12,03,18.10
2016,07,29,12,04,18.10
2016,07,29,12,05,18.10
2016,07,29,12,06,18.10
2016,07,29,12,07,18.10
2016,07,29,12,08,18.10
2016,07,29,12,09,18.10
2016,07,29,12,10,18.20
2016,07,29,12,11,18.20
2016,07,29,12,12,18.30
2016,07,29,12,13,18.30
2016,07,29,12,14,18.40
2016,07,29,12,15,18.40
2016,07,29,12,16,18.50
2016,07,29,12,17,18.50
2016,07,29,12,18,18.60
2016,07,29,12,19,18.60
2016,07,29,12,20,18.70
2016,07,29,12,21,18.70
2016,07,29,12,22,18.70
2016,07,29,12,23,18.80
2016,07,29,12,24,18.80
2016,07,29,12,25,18.80
2016,07,29,12,26,18.80
2016,07,29,12,27,18.80
2016,07,29,12,28,18.80
2016,07,29,12,29,18.80
2016,07,29,12,30,18.80
2016,07,29,12,31,18.80
2016,07,29,12,32,18.90
2016,07,29,12,33,18.90
2016,07,29,12,34,18.90
2016,07,29,12,35,18.90
2016,07,29,12,36,18.90
2016,07,29,12,37,19.00
2016,07,29,12,38,19.00
2016,07,29,12,39,19.10
2016,07,29,12,40,19.10
2016,07,29,12,41,19.10
2016,07,29,12,42,19.20
2016,07,29,12,43,19.20
2016,07,29,12,44,19.30
2016,07,29,12,45,19.30
2016,07,29,12,46,19.30
2016,07,29,12,47,19.40
2016,07,29,12,48,19.50
2016,07,29,12,49,19.50
2016,07,29,12,50,19.60
2016,07,29,12,51,19.70
2016,07,29,12,52,19.80
2016,07,29,12,53,19.80
2016,07,29,12,54,19.90
2016,07,29,12,55,20.00
2016,07,29,12,56,20.00
2016,07,29,12,57,20.10
2016,07,29,12,58,20.20
2016,07,29,12,59,20.20
2016,07,29,13,00,20.30
2016,07,29,13,01,20.40
2016,07,29,13,02,20.40
2016,07,29,13,03,20.40
2016,07,29,13,04,20.50
2016,07,29,13,05,20.60
2016,07,29,13,06,20.60
2016,07,29,13,07,20.60
2016,07,29,13,08,20.70
2016,07,29,13,09,20.70
2016,07,29,13,10,20.80
2016,07,29,13,11,20.80
2016,07,29,13,12,20.80
2016,07,29,13,13,20.90
2016,07,29,13,14,20.90
2016,07,29,13,15,20.90
2016,07,29,13,16,20.90
2016,07,29,13,17,20.90
2016,07,29,13,18,20.90
2016,07,29,13,19,21.00
2016,07,29,13,20,21.00
2016,07,29,13,21,21.00
2016,07,29,13,22,21.10
2016,07,29,13,23,21.10
2016,07,29,13,24,21.10
2016,07,29,13,25,21.10
2016,07,29,13,26,21.20
2016,07,29,13,27,21.20
2016,07,29,13,28,21.30
2016,07,29,13,29,21.30
2016,07,29,13,30,21.30
2016,07,29,13,31,21.40
2016,07,29,13,32,21.40
2016,07,29,13,33,21.40
2016,07,29,13,34,21.40
2016,07,29,13,35,21.40
2016,07,29,13,36,21.40
2016,07,29,13,37,21.40
2016,07,29,13,38,21.40
2016,07,29,13,39,21.40
2016,07,29,13,40,21.40
2016,07,29,13,41,21.30
2016,07,29,13,42,21.30
2016,07,29,13,43,21.20
2016,07,29,13,44,21.20
2016,07,29,13,45,21.20
2016,07,29,13,46,21.20
2016,07,29,13,47,21.20
2016,07,29,13,48,21.20
2016,07,29,13,49,21.20
2016,07,29,13,50,21.20
2016,07,29,13,51,21.20
2016,07,29,13,52,21.20
2016,07,29,13,53,21.20
2016,07,29,13,54,21.20
2016,07,29,13,55,21.20
2016,07,29,13,56,21.20
2016,07,29,13,57,21.20
2016,07,29,13,58,21.20
2016,07,29,13,59,21.20
2016,07,29,14,00,21.20
2016,07,29,14,01,21.20
2016,07,29,14,02,21.20
2016,07,29,14,03,21.20
2016,07,29,14,04,21.20
2016,07,29,14,05,21.20
2016,07,29,14,06,21.20
2016,07,29,14,07,21.20
2016,07,29,14,08,21.20
2016,07,29,14,09,21.20
2016,07,29,14,10,21.20
2016,07,29,14,11,21.20
2016,07,29,14,12,21.20
2016,07,29,14,13,21.20
2016,07,29,14,14,21.30
2016,07,29,14,15,21.30
2016,07,29,14,16,21.40
2016,07,29,14,17,21.40
2016,07,29,14,18,21.50
2016,07,29,14,19,21.50
2016,07,29,14,20,21.50
2016,07,29,14,21,21.50
2016,07,29,14,22,21.40
2016,07,29,14,23,21.40
2016,07,29,14,24,21.30
2016,07,29,14,25,21.30
2016,07,29,14,26,21.20
2016,07,29,14,27,21.20
2016,07,29,14,28,21.10
2016,07,29,14,29,21.10
2016,07,29,14,30,21.10
2016,07,29,14,31,21.10
2016,07,29,14,32,21.00
2016,07,29,14,33,21.00
2016,07,29,14,34,21.00
2016,07,29,14,35,21.00
2016,07,29,14,36,21.00
2016,07,29,14,37,21.00
2016,07,29,14,38,21.00
2016,07,29,14,39,21.00
2016,07,29,14,40,21.00
2016,07,29,14,41,21.00
2016,07,29,14,42,21.00
2016,07,29,14,43,21.00
2016,07,29,14,44,21.00
2016,07,29,14,45,21.00
2016,07,29,14,46,21.00
2016,07,29,14,47,21.00
2016,07,29,14,48,21.00
2016,07,29,14,49,21.00
2016,07,29,14,50,21.00
2016,07,29,14,51,21.00
2016,07,29,14,52,21.00
2016,07,29,14,53,20.90
2016,07,29,14,54,21.00
2016,07,29,14,55,21.00
2016,07,29,14,56,21.00
2016,07,29,14,57,20.90
2016,07,29,14,58,20.90
2016,07,29,14,59,20.90
2016,07,29,15,00,20.90
2016,07,29,15,01,20.90
2016,07,29,15,02,20.90
2016,07,29,15,03,20.90
2016,07,29,15,04,20.90
2016,07,29,15,05,20.90
2016,07,29,15,06,20.90
2016,07,29,15,07,20.90
2016,07,29,15,08,20.80
2016,07,29,15,09,20.80
2016,07,29,15,10,20.70
2016,07,29,15,11,20.70
2016,07,29,15,12,20.60
2016,07,29,15,13,20.60
2016,07,29,15,14,20.50
2016,07,29,15,15,20.40
2016,07,29,15,16,20.30
2016,07,29,15,17,20.30
2016,07,29,15,18,20.20
2016,07,29,15,19,20.20
2016,07,29,15,20,20.20
2016,07,29,15,21,20.20
2016,07,29,15,22,20.20
2016,07,29,15,23,20.20
2016,07,29,15,24,20.20
2016,07,29,15,25,20.30
2016,07,29,15,26,20.30
2016,07,29,15,27,20.30
2016,07,29,15,28,20.30
2016,07,29,15,29,20.30
2016,07,29,15,30,20.40
2016,07,29,15,31,20.40
2016,07,29,15,32,20.40
2016,07,29,15,33,20.50
2016,07,29,15,34,20.50
2016,07,29,15,35,20.50
2016,07,29,15,36,20.60
2016,07,29,15,37,20.60
2016,07,29,15,38,20.60
2016,07,29,15,39,20.60
2016,07,29,15,40,20.70
2016,07,29,15,41,20.70
2016,07,29,15,42,20.70
2016,07,29,15,43,20.70
2016,07,29,15,44,20.70
2016,07,29,15,45,20.70
2016,07,29,15,46,20.70
2016,07,29,15,47,20.70
2016,07,29,15,48,20.70
2016,07,29,15,49,20.70
2016,07,29,15,50,20.70
2016,07,29,15,51,20.70
2016,07,29,15,52,20.70
2016,07,29,15,53,20.60
2016,07,29,15,54,20.60
2016,07,29,15,55,20.60
2016,07,29,15,56,20.50
2016,07,29,15,57,20.50
2016,07,29,15,58,20.50
2016,07,29,15,59,20.50
2016,07,29,16,00,20.50
2016,07,29,16,01,20.60
2016,07,29,16,02,20.60
2016,07,29,16,03,20.60
2016,07,29,16,04,20.60
2016,07,29,16,05,20.60
2016,07,29,16,06,20.60
2016,07,29,16,07,20.60
2016,07,29,16,08,20.50
2016,07,29,16,09,20.40
2016,07,29,16,10,20.40
2016,07,29,16,11,20.30
2016,07,29,16,12,20.20
2016,07,29,16,13,20.20
2016,07,29,16,14,20.10
2016,07,29,16,15,20.10
2016,07,29,16,16,20.00
2016,07,29,16,17,20.00
2016,07,29,16,18,20.00
2016,07,29,16,19,19.90
2016,07,29,16,20,19.90
2016,07,29,16,21,19.90
2016,07,29,16,22,19.90
2016,07,29,16,23,19.80
2016,07,29,16,24,19.80
2016,07,29,16,25,19.80
2016,07,29,16,26,19.80
2016,07,29,16,27,19.70
2016,07,29,16,28,19.70
2016,07,29,16,29,19.70
2016,07,29,16,30,19.70
2016,07,29,16,31,19.70
2016,07,29,16,32,19.70
2016,07,29,16,33,19.80
2016,07,29,16,34,19.80
2016,07,29,16,35,19.90
2016,07,29,16,36,19.90
2016,07,29,16,37,20.00
2016,07,29,16,38,20.00
2016,07,29,16,39,19.90
2016,07,29,16,40,19.90
2016,07,29,16,41,19.80
2016,07,29,16,42,19.80
2016,07,29,16,43,19.70
2016,07,29,16,44,19.70
2016,07,29,16,45,19.60
2016,07,29,16,46,19.60
2016,07,29,16,47,19.60
2016,07,29,16,48,19.60
2016,07,29,16,49,19.60
2016,07,29,16,50,19.70
2016,07,29,16,51,19.80
2016,07,29,16,52,19.90
2016,07,29,16,53,20.00
2016,07,29,16,54,20.20
2016,07,29,16,55,20.30
2016,07,29,16,56,20.50
2016,07,29,16,57,20.60
2016,07,29,16,58,20.70
2016,07,29,16,59,20.80
2016,07,29,17,00,20.80
2016,07,29,17,01,20.80
2016,07,29,17,02,20.90
2016,07,29,17,03,20.90
2016,07,29,17,04,20.90
2016,07,29,17,05,20.80
2016,07,29,17,06,20.80
2016,07,29,17,07,20.70
2016,07,29,17,08,20.60
2016,07,29,17,09,20.50
2016,07,29,17,10,20.40
2016,07,29,17,11,20.30
2016,07,29,17,12,20.30
2016,07,29,17,13,20.20
2016,07,29,17,14,20.10
2016,07,29,17,15,20.00
2016,07,29,17,16,19.90
2016,07,29,17,17,19.80
2016,07,29,17,18,19.80
2016,07,29,17,19,19.70